Location: Sternwarte ZA, Rosenfeld-Brittheim
(48.2889°N, 8.6789°E)
Time: 03:04:24
(UTC+01:00)

ISS - Visible Passes

Search period start: 23 January 2018 00:00
Search period end: 02 February 2018 00:00
Orbit: 402 x 407 km, 51.6° (Epoch: 23 January)

Date Brightness Start Highest point End Pass type
(mag) Time Alt. Az. Time Alt. Az. Time Alt. Az.
25 Jan -1.1 19:45:48 10° SW 19:46:22 14° SSW 19:46:22 14° SSW visible
26 Jan -2.3 18:54:03 10° SSW 18:56:31 22° SE 18:56:31 22° SE visible
27 Jan -1.6 18:02:49 10° SSE 18:04:34 14° SE 18:06:18 10° ESE visible
27 Jan -2.2 19:37:18 10° WSW 19:39:14 32° SW 19:39:14 32° SW visible
28 Jan -3.3 18:45:10 10° SW 18:48:17 43° SSE 18:49:12 33° ESE visible
28 Jan -0.4 20:21:31 10° W 20:21:52 12° W 20:21:52 12° W visible
29 Jan -2.4 17:53:15 10° SSW 17:56:03 27° SE 17:58:51 10° E visible
29 Jan -3.2 19:29:03 10° WSW 19:31:46 55° W 19:31:46 55° W visible
30 Jan -3.9 18:36:41 10° WSW 18:39:56 80° SSE 18:41:36 26° ENE visible
30 Jan -0.8 20:13:25 10° W 20:14:16 16° WNW 20:14:16 16° WNW visible
31 Jan -3.3 19:20:54 10° W 19:24:03 51° NNW 19:24:03 51° NNW visible
01 Feb -3.6 18:28:24 10° W 18:31:39 65° NNW 18:33:49 19° ENE visible
01 Feb -1.2 20:05:15 10° WNW 20:06:28 20° WNW 20:06:28 20° WNW visible
